[[{"header":{"parameterUnit":"m.s-1","parameterCategory":1,"la1":30.2992,"la2":30.254,"lo1":-89.0895,"lo2":-89.0443,"dy":0.0025,"dx":0.0025,"nx":19,"ny":19,"refTime":"2026-03-08T03:00:00:Z","depth":0,"parameterNumber":2,"parameterNumberName":"U-component_of_WINDS"},"data":[0,0,0,-1.9834,-1.9836,-1.995,-1.9951,-2.0093,-2.0095,0,0,0,0,0,0,0,0,0,0,0,-1.9797,-1.9797,-1.9833,-1.9836,-1.995,-1.9951,-2.0093,-2.0095,0,0,0,0,0,0,0,0,0,0,0,-1.9796,-1.9797,-1.9798,-1.9837,-1.995,-1.9951,-2.0093,-2.0008,0,0,0,0,0,0,0,0,0,0,-1.9898,-1.986,-1.9797,-1.9798,-1.9837,-1.995,-1.9951,-2.0004,-2.0014,-2.004,0,-2.0061,0,-2.008,-2.0104,-2.0104,0,0,0,-1.9839,-1.9853,-1.9886,-1.9798,-1.9838,-1.995,-1.99,-2.0009,-2.002,-2.0052,-2.0064,-2.0069,-2.0083,-2.0105,-2.0105,-2.0245,-2.0246,0,0,-1.9833,-1.9816,-1.9879,-1.9893,-1.9874,-1.9896,-1.9903,-2.0016,-2.0028,-2.0064,-2.0072,-2.0085,-2.0106,-2.0107,-2.0245,-2.0245,0,0,0,-1.9813,-1.9811,-1.9842,-1.9887,-1.9908,-1.9899,-1.9907,-2.0023,-2.0034,-2.0074,-2.0087,-2.0106,-2.0108,-2.0244,-2.0245,-2.0253,0,0,0,-1.9809,-1.98,-1.9839,-1.983,-1.9905,-1.9966,-1.9911,-2.0026,-2.004,-2.0086,-2.0107,-2.011,-2.0244,-2.0245,-2.0251,-2.0259,0,0,0,-1.979,-1.9797,-1.9813,-1.9829,-1.9877,-1.9965,-1.9983,-2.0029,-2.0047,-2.0104,-2.011,-2.0243,-2.0244,-2.025,-2.0257,-2.0289,0,0,0,-1.9766,-1.982,-1.9813,-1.9878,-1.9876,-1.9969,-1.9982,-2.0053,-2.0103,-2.0107,-2.0244,-2.0245,-2.025,-2.0256,-2.0288,-2.0312,-2.0321,0,0,-1.9824,-1.9826,-1.9866,-1.9863,-1.9952,-1.9953,-2.0044,-2.0107,-2.0129,-2.0206,-2.0209,-2.0252,-2.0257,-2.0289,-2.0381,-2.0387,0,0,0,-1.9879,-1.9907,-1.9934,-1.998,-2.0029,-2.0071,-2.0121,-2.0145,-2.021,-2.0164,-2.0274,-2.0278,-2.0297,-2.0309,-2.0315,-2.0333,-2.025,-2.025,-2.025,-1.9936,-1.996,-2.0027,-2.0065,-2.011,-2.0161,-2.02,-2.024,-2.0252,-2.0278,-2.03,-2.0352,-2.0366,-2.0371,-2.0388,-2.0316,-2.0316,-2.0317,-2.0317,-2.0023,-2.0065,-2.008,-2.0149,-2.0175,-2.0234,-2.0286,-2.0292,-2.0352,-2.0338,-2.0356,-2.0337,-2.0378,-2.0394,-2.0317,-2.0317,-2.0317,-2.0317,-2.0317,-2.0062,-2.0086,-2.0113,-2.0182,-2.0233,-2.027,-2.0325,-2.0348,-2.0369,-2.0387,-2.0412,-2.0412,-2.0414,-2.0398,-2.0398,-2.0399,-2.0399,-2.0399,-2.0399,-2.009,-2.012,-2.0164,-2.0219,-2.0252,-2.0297,-2.0349,-2.0382,-2.0424,-2.0436,-2.0436,-2.0445,-2.0378,-2.0359,-2.0402,-2.0401,-2.0401,-2.0401,-2.04,-2.0166,-2.0152,-2.0219,-2.0251,-2.0318,-2.0366,-2.0394,-2.0459,-2.0489,-2.0516,-2.0522,-2.0469,-2.0472,-2.0468,-2.0452,-2.0517,-2.0517,-2.0517,-2.0517,-2.0197,-2.0201,-2.0273,-2.0323,-2.0375,-2.0406,-2.0482,-2.0523,-2.0564,-2.0585,-2.0579,-2.0562,-2.0556,-2.0563,-2.0556,-2.0542,-2.0628,-2.0629,-2.0629,-2.0244,-2.0254,-2.0312,-2.0351,-2.0405,-2.0451,-2.0522,-2.058,-2.0624,-2.0634,-2.0601,-2.0596,-2.0568,-2.0558,-2.0564,-2.0554,-2.0528,0,0]},{"header":{"parameterUnit":"m.s-1","parameterCategory":1,"la1":30.2992,"la2":30.254,"lo1":-89.0895,"lo2":-89.0443,"dy":0.0025,"dx":0.0025,"nx":19,"ny":19,"refTime":"2026-03-08T03:00:00:Z","depth":0,"parameterNumber":3,"parameterNumberName":"V-component_of_WINDS"},"data":[0,0,0,2.0943,2.0943,2.0977,2.0978,2.1019,2.102,0,0,0,0,0,0,0,0,0,0,0,2.0932,2.0932,2.0943,2.0943,2.0977,2.0978,2.1019,2.102,0,0,0,0,0,0,0,0,0,0,0,2.0932,2.0932,2.0932,2.0944,2.0977,2.0978,2.1019,2.0994,0,0,0,0,0,0,0,0,0,0,2.0961,2.0951,2.0932,2.0932,2.0944,2.0977,2.0978,2.0993,2.0995,2.1003,0,2.101,0,2.1016,2.1022,2.1022,0,0,0,2.0943,2.0948,2.0958,2.0933,2.0944,2.0977,2.0962,2.0994,2.0997,2.1007,2.1011,2.1013,2.1017,2.1023,2.1023,2.107,2.107,0,0,2.0942,2.0937,2.0956,2.096,2.0956,2.0961,2.0963,2.0996,2.1,2.1011,2.1014,2.1017,2.1023,2.1023,2.107,2.107,0,0,0,2.0936,2.0936,2.0945,2.0959,2.0965,2.0962,2.0964,2.0999,2.1002,2.1014,2.1018,2.1023,2.1024,2.107,2.107,2.1078,0,0,0,2.0935,2.0933,2.0944,2.0942,2.0964,2.0982,2.0966,2.1,2.1004,2.1017,2.1023,2.1024,2.1069,2.107,2.1077,2.1083,0,0,0,2.093,2.0932,2.0937,2.0942,2.0956,2.0982,2.0987,2.1001,2.1006,2.1022,2.1024,2.1069,2.107,2.1077,2.1082,2.1095,0,0,0,2.0923,2.0942,2.0937,2.096,2.0956,2.0987,2.0987,2.101,2.1025,2.1023,2.1069,2.107,2.1077,2.1081,2.1095,2.1107,2.1112,0,0,2.0945,2.0945,2.0959,2.0955,2.0986,2.0982,2.1013,2.103,2.1035,2.1058,2.1059,2.1078,2.1082,2.1095,2.1136,2.114,0,0,0,2.0964,2.0974,2.0983,2.0999,2.1013,2.1026,2.1039,2.1046,2.1066,2.1046,2.1086,2.1088,2.1096,2.1103,2.1106,2.1114,2.1072,2.1072,2.1072,2.0989,2.0996,2.102,2.1031,2.1046,2.106,2.1072,2.1084,2.1084,2.1093,2.1101,2.1125,2.1132,2.1134,2.1143,2.1107,2.1107,2.1107,2.1107,2.1023,2.104,2.1042,2.1067,2.1073,2.1093,2.1108,2.1108,2.1128,2.1119,2.1127,2.1118,2.1138,2.1146,2.1107,2.1107,2.1107,2.1107,2.1107,2.1042,2.1051,2.1059,2.1084,2.1101,2.1111,2.1131,2.1135,2.114,2.1147,2.1156,2.1156,2.1158,2.1151,2.1151,2.1151,2.1151,2.1151,2.1151,2.1057,2.1067,2.1084,2.1103,2.1114,2.1129,2.1145,2.1156,2.1169,2.1171,2.1171,2.1172,2.1139,2.1131,2.1153,2.1152,2.1152,2.1152,2.1152,2.1091,2.1085,2.1111,2.1123,2.1146,2.1164,2.117,2.1193,2.1202,2.1212,2.1212,2.1186,2.1185,2.1183,2.1177,2.1209,2.1209,2.1209,2.1209,2.1108,2.1108,2.1137,2.1156,2.1175,2.1183,2.1213,2.1226,2.1237,2.1244,2.124,2.1231,2.1229,2.123,2.1227,2.1221,2.1264,2.1264,2.1264,2.113,2.1133,2.1158,2.117,2.1189,2.1205,2.1234,2.1255,2.1266,2.1266,2.1249,2.1247,2.1234,2.1229,2.1229,2.1223,2.1213,0,0]}]]